Time,TemperatureF,DewpointF,PressureIn,WindDirection,WindDirectionDegrees,WindSpeedMPH,WindSpeedGustMPH,Humidity,HourlyPrecipIn,Conditions,Clouds,dailyrainin,SoftwareType,DateUTC
2013-11-13 00:00:00,22.4,15.7,30.67,ENE,59,0.0,0.0,75,0.00,RA,,0.00,WeatherDisplay:10.37,2013-11-13 05:00:00,
2013-11-13 00:01:00,22.4,15.7,30.67,ENE,59,0.0,0.0,75,0.00,RA,,0.00,WeatherDisplay:10.37,2013-11-13 05:01:00,
2013-11-13 00:02:00,22.4,15.7,30.67,ENE,59,0.0,0.0,75,0.00,RA,,0.00,WeatherDisplay:10.37,2013-11-13 05:02:00,
2013-11-13 00:06:00,22.4,16.0,30.67,ENE,59,0.0,0.0,76,0.00,RA,,0.00,WeatherDisplay:10.37,2013-11-13 05:06:00,
2013-11-13 00:07:00,22.4,16.0,30.67,ENE,59,0.0,0.0,76,0.00,RA,,0.00,WeatherDisplay:10.37,2013-11-13 05:07:00,
2013-11-13 00:12:00,22.5,15.8,30.68,ENE,59,0.0,0.0,75,0.00,CLR,,0.00,WeatherDisplay:10.37,2013-11-13 05:12:00,
2013-11-13 00:17:00,22.7,16.0,30.68,ENE,59,0.0,0.0,75,0.00,CLR,,0.00,WeatherDisplay:10.37,2013-11-13 05:17:00,
2013-11-13 00:22:00,22.9,16.2,30.67,ENE,59,1.0,1.0,75,0.00,CLR,,0.00,WeatherDisplay:10.37,2013-11-13 05:22:00,
2013-11-13 00:27:00,23.2,16.4,30.68,ENE,59,1.0,1.0,75,0.00,CLR,,0.00,WeatherDisplay:10.37,2013-11-13 05:27:00,
2013-11-13 00:32:00,23.5,16.7,30.67,ENE,59,0.0,0.0,75,0.00,CLR,,0.00,WeatherDisplay:10.37,2013-11-13 05:32:00,
2013-11-13 00:37:00,23.8,17.0,30.68,ENE,59,0.0,0.0,75,0.00,CLR,,0.00,WeatherDisplay:10.37,2013-11-13 05:37:00,
2013-11-13 00:42:00,24.0,16.9,30.67,ENE,59,0.0,0.0,74,0.00,CLR,,0.00,WeatherDisplay:10.37,2013-11-13 05:42:00,
2013-11-13 00:47:00,24.1,17.0,30.67,ENE,59,0.0,0.0,74,0.00,CLR,,0.00,WeatherDisplay:10.37,2013-11-13 05:47:00,
2013-11-13 00:52:00,24.2,17.1,30.67,ENE,59,0.0,0.0,74,0.00,CLR,,0.00,WeatherDisplay:10.37,2013-11-13 05:52:00,
2013-11-13 00:57:00,24.1,17.0,30.67,ENE,59,0.0,0.0,74,0.00,CLR,,0.00,WeatherDisplay:10.37,2013-11-13 05:57:00,
2013-11-13 01:02:00,24.0,16.9,30.67,ENE,59,0.0,0.0,74,0.00,FEW,,0.00,WeatherDisplay:10.37,2013-11-13 06:02:00,
2013-11-13 01:07:00,24.0,17.2,30.67,ENE,59,0.0,0.0,75,0.00,FEW,,0.00,WeatherDisplay:10.37,2013-11-13 06:07:00,
2013-11-13 01:12:00,24.1,17.3,30.67,ENE,59,0.0,0.0,75,0.00,FEW,,0.00,WeatherDisplay:10.37,2013-11-13 06:12:00,
2013-11-13 01:17:00,24.1,17.3,30.67,ENE,59,0.0,0.0,75,0.00,FEW,,0.00,WeatherDisplay:10.37,2013-11-13 06:17:00,
2013-11-13 01:22:00,24.0,17.2,30.67,ENE,59,0.0,0.0,75,0.00,FEW,,0.00,WeatherDisplay:10.37,2013-11-13 06:22:00,
2013-11-13 01:27:00,23.9,17.1,30.67,ENE,59,0.0,0.0,75,0.00,FEW,,0.00,WeatherDisplay:10.37,2013-11-13 06:27:00,
2013-11-13 01:32:00,23.7,16.9,30.67,ENE,59,0.0,0.0,75,0.00,FEW,,0.00,WeatherDisplay:10.37,2013-11-13 06:32:00,
2013-11-13 01:37:00,23.4,16.6,30.67,ENE,59,0.0,0.0,75,0.00,FEW,,0.00,WeatherDisplay:10.37,2013-11-13 06:37:00,
2013-11-13 01:42:00,23.2,16.8,30.67,ENE,59,0.0,0.0,76,0.00,FEW,,0.00,WeatherDisplay:10.37,2013-11-13 06:42:00,
2013-11-13 01:47:00,23.0,16.6,30.67,ENE,59,0.0,0.0,76,0.00,FEW,,0.00,WeatherDisplay:10.37,2013-11-13 06:47:00,
2013-11-13 01:52:00,22.7,16.6,30.66,ENE,59,0.0,0.0,77,0.00,FEW,,0.00,WeatherDisplay:10.37,2013-11-13 06:52:00,
2013-11-13 01:57:00,22.7,16.6,30.66,ENE,59,0.0,0.0,77,0.00,FEW,,0.00,WeatherDisplay:10.37,2013-11-13 06:57:00,
2013-11-13 02:02:00,22.6,16.8,30.66,ENE,59,0.0,0.0,78,0.00,CLR,,0.00,WeatherDisplay:10.37,2013-11-13 07:02:00,
2013-11-13 02:07:00,22.4,16.6,30.66,ENE,59,0.0,0.0,78,0.00,CLR,,0.00,WeatherDisplay:10.37,2013-11-13 07:07:00,
2013-11-13 02:12:00,22.3,16.5,30.66,ENE,59,0.0,0.0,78,0.00,CLR,,0.00,WeatherDisplay:10.37,2013-11-13 07:12:00,
2013-11-13 02:17:00,22.1,16.3,30.66,ENE,59,0.0,0.0,78,0.00,CLR,,0.00,WeatherDisplay:10.37,2013-11-13 07:17:00,
2013-11-13 02:22:00,22.0,16.2,30.66,ENE,59,0.0,0.0,78,0.00,CLR,,0.00,WeatherDisplay:10.37,2013-11-13 07:22:00,
2013-11-13 02:27:00,21.8,16.3,30.67,ENE,59,0.0,0.0,79,0.00,CLR,,0.00,WeatherDisplay:10.37,2013-11-13 07:27:00,
2013-11-13 02:32:00,21.6,16.1,30.67,ENE,59,0.0,0.0,79,0.00,CLR,,0.00,WeatherDisplay:10.37,2013-11-13 07:32:00,
2013-11-13 02:37:00,21.6,16.1,30.67,ENE,59,0.0,0.0,79,0.00,CLR,,0.00,WeatherDisplay:10.37,2013-11-13 07:37:00,
2013-11-13 02:42:00,21.6,16.1,30.67,ENE,59,0.0,0.0,79,0.00,CLR,,0.00,WeatherDisplay:10.37,2013-11-13 07:42:00,
2013-11-13 02:47:00,21.5,16.3,30.67,ENE,59,0.0,0.0,80,0.00,CLR,,0.00,WeatherDisplay:10.37,2013-11-13 07:47:00,
2013-11-13 02:52:00,21.4,16.2,30.67,ENE,59,0.0,0.0,80,0.00,CLR,,0.00,WeatherDisplay:10.37,2013-11-13 07:52:00,
2013-11-13 02:57:00,21.7,16.5,30.67,ENE,59,0.0,0.0,80,0.00,CLR,,0.00,WeatherDisplay:10.37,2013-11-13 07:57:00,
2013-11-13 03:02:00,22.0,17.1,30.66,ENE,59,0.0,0.0,81,0.00,CLR,,0.00,WeatherDisplay:10.37,2013-11-13 08:02:00,
2013-11-13 03:07:00,22.1,17.2,30.67,ENE,59,0.0,0.0,81,0.00,CLR,,0.00,WeatherDisplay:10.37,2013-11-13 08:07:00,
2013-11-13 03:12:00,22.2,17.3,30.67,ENE,59,0.0,0.0,81,0.00,CLR,,0.00,WeatherDisplay:10.37,2013-11-13 08:12:00,
2013-11-13 03:17:00,22.3,17.4,30.67,ENE,59,0.0,0.0,81,0.00,CLR,,0.00,WeatherDisplay:10.37,2013-11-13 08:17:00,
2013-11-13 03:22:00,22.4,17.5,30.67,ENE,59,0.0,0.0,81,0.00,CLR,,0.00,WeatherDisplay:10.37,2013-11-13 08:22:00,
2013-11-13 03:27:00,22.4,17.5,30.67,ENE,59,0.0,0.0,81,0.00,CLR,,0.00,WeatherDisplay:10.37,2013-11-13 08:27:00,
2013-11-13 03:32:00,22.5,17.5,30.67,ENE,59,0.0,0.0,81,0.00,CLR,,0.00,WeatherDisplay:10.37,2013-11-13 08:32:00,
2013-11-13 03:37:00,22.5,17.5,30.67,ENE,59,0.0,0.0,81,0.00,CLR,,0.00,WeatherDisplay:10.37,2013-11-13 08:37:00,
2013-11-13 03:42:00,22.6,17.6,30.67,ENE,59,1.2,1.2,81,0.00,CLR,,0.00,WeatherDisplay:10.37,2013-11-13 08:42:00,
2013-11-13 03:47:00,22.8,17.8,30.67,ENE,59,1.2,1.2,81,0.00,CLR,,0.00,WeatherDisplay:10.37,2013-11-13 08:47:00,
2013-11-13 03:52:00,22.9,17.9,30.67,ENE,59,1.2,0.0,81,0.00,CLR,,0.00,WeatherDisplay:10.37,2013-11-13 08:52:00,
2013-11-13 03:57:00,23.0,18.0,30.67,ENE,59,0.0,0.0,81,0.00,CLR,,0.00,WeatherDisplay:10.37,2013-11-13 08:57:00,
2013-11-13 04:02:00,23.1,18.1,30.67,ENE,59,0.0,0.0,81,0.00,CLR,,0.00,WeatherDisplay:10.37,2013-11-13 09:02:00,
2013-11-13 04:07:00,23.1,18.1,30.67,ENE,59,0.0,0.0,81,0.00,CLR,,0.00,WeatherDisplay:10.37,2013-11-13 09:07:00,
2013-11-13 04:12:00,23.0,18.0,30.67,ENE,59,0.0,0.0,81,0.00,CLR,,0.00,WeatherDisplay:10.37,2013-11-13 09:12:00,
2013-11-13 04:17:00,23.0,18.0,30.67,ENE,59,0.0,0.0,81,0.00,CLR,,0.00,WeatherDisplay:10.37,2013-11-13 09:17:00,
2013-11-13 04:22:00,22.9,17.9,30.68,ENE,59,0.0,0.0,81,0.00,CLR,,0.00,WeatherDisplay:10.37,2013-11-13 09:22:00,
2013-11-13 04:27:00,22.7,17.7,30.68,ENE,59,0.0,0.0,81,0.00,CLR,,0.00,WeatherDisplay:10.37,2013-11-13 09:27:00,
2013-11-13 04:32:00,22.5,17.5,30.68,ENE,59,0.0,0.0,81,0.00,CLR,,0.00,WeatherDisplay:10.37,2013-11-13 09:32:00,
2013-11-13 04:37:00,22.4,17.5,30.68,ENE,59,0.0,0.0,81,0.00,CLR,,0.00,WeatherDisplay:10.37,2013-11-13 09:37:00,
2013-11-13 04:42:00,22.4,17.5,30.68,ENE,59,0.0,0.0,81,0.00,CLR,,0.00,WeatherDisplay:10.37,2013-11-13 09:42:00,
2013-11-13 04:47:00,22.3,17.4,30.68,ENE,59,0.0,0.0,81,0.00,CLR,,0.00,WeatherDisplay:10.37,2013-11-13 09:47:00,
2013-11-13 04:52:00,22.1,17.2,30.68,ENE,59,0.0,0.0,81,0.00,CLR,,0.00,WeatherDisplay:10.37,2013-11-13 09:52:00,
2013-11-13 04:57:00,22.0,17.1,30.68,ENE,59,0.0,0.0,81,0.00,CLR,,0.00,WeatherDisplay:10.37,2013-11-13 09:57:00,
2013-11-13 05:02:00,21.9,17.0,30.68,ENE,59,0.0,0.0,81,0.00,CLR,,0.00,WeatherDisplay:10.37,2013-11-13 10:02:00,
2013-11-13 05:07:00,21.8,17.2,30.69,ENE,59,0.0,0.0,82,0.00,CLR,,0.00,WeatherDisplay:10.37,2013-11-13 10:07:00,
2013-11-13 05:12:00,21.7,16.8,30.69,ENE,59,0.0,0.0,81,0.00,CLR,,0.00,WeatherDisplay:10.37,2013-11-13 10:12:00,
2013-11-13 05:17:00,21.6,17.0,30.69,ENE,59,0.0,0.0,82,0.00,CLR,,0.00,WeatherDisplay:10.37,2013-11-13 10:17:00,
2013-11-13 05:22:00,21.5,16.9,30.69,ENE,59,0.0,0.0,82,0.00,CLR,,0.00,WeatherDisplay:10.37,2013-11-13 10:22:00,
2013-11-13 05:27:00,21.3,16.7,30.69,ENE,59,0.0,0.0,82,0.00,CLR,,0.00,WeatherDisplay:10.37,2013-11-13 10:27:00,
2013-11-13 05:32:00,21.0,16.4,30.68,ENE,59,0.0,0.0,82,0.00,CLR,,0.00,WeatherDisplay:10.37,2013-11-13 10:32:00,
2013-11-13 05:37:00,20.8,16.2,30.69,ENE,59,0.0,0.0,82,0.00,CLR,,0.00,WeatherDisplay:10.37,2013-11-13 10:37:00,
2013-11-13 05:42:00,20.7,16.1,30.69,ENE,59,0.0,0.0,82,0.00,CLR,,0.00,WeatherDisplay:10.37,2013-11-13 10:42:00,
2013-11-13 05:47:00,20.7,16.1,30.69,ENE,59,0.0,0.0,82,0.00,CLR,,0.00,WeatherDisplay:10.37,2013-11-13 10:47:00,
2013-11-13 05:52:00,20.7,16.1,30.70,ENE,59,0.0,0.0,82,0.00,CLR,,0.00,WeatherDisplay:10.37,2013-11-13 10:52:00,
2013-11-13 05:57:00,20.7,16.1,30.69,ENE,59,0.0,0.0,82,0.00,CLR,,0.00,WeatherDisplay:10.37,2013-11-13 10:57:00,
2013-11-13 06:02:00,20.7,16.4,30.69,ENE,59,0.0,0.0,83,0.00,CLR,,0.00,WeatherDisplay:10.37,2013-11-13 11:02:00,
2013-11-13 06:07:00,20.8,16.5,30.69,ENE,59,0.0,0.0,83,0.00,CLR,,0.00,WeatherDisplay:10.37,2013-11-13 11:07:00,
2013-11-13 06:12:00,20.7,16.4,30.69,ENE,59,0.0,0.0,83,0.00,CLR,,0.00,WeatherDisplay:10.37,2013-11-13 11:12:00,
2013-11-13 06:17:00,20.4,16.1,30.69,ENE,59,0.0,0.0,83,0.00,CLR,,0.00,WeatherDisplay:10.37,2013-11-13 11:17:00,
2013-11-13 06:22:00,20.3,16.0,30.69,ENE,59,0.0,0.0,83,0.00,CLR,,0.00,WeatherDisplay:10.37,2013-11-13 11:22:00,
2013-11-13 06:27:00,20.5,16.2,30.69,ENE,59,0.0,0.0,83,0.00,CLR,,0.00,WeatherDisplay:10.37,2013-11-13 11:27:00,
2013-11-13 06:32:00,20.8,16.5,30.69,ENE,59,0.0,0.0,83,0.00,CLR,,0.00,WeatherDisplay:10.37,2013-11-13 11:32:00,
2013-11-13 06:37:00,20.9,16.5,30.70,ENE,59,0.0,0.0,83,0.00,CLR,,0.00,WeatherDisplay:10.37,2013-11-13 11:37:00,
2013-11-13 06:42:00,20.8,16.5,30.70,ENE,59,0.0,0.0,83,0.00,CLR,,0.00,WeatherDisplay:10.37,2013-11-13 11:42:00,
2013-11-13 06:47:00,20.7,16.4,30.70,ENE,59,0.0,0.0,83,0.00,CLR,,0.00,WeatherDisplay:10.37,2013-11-13 11:47:00,
2013-11-13 06:52:00,20.7,16.4,30.70,ENE,59,0.0,0.0,83,0.00,CLR,,0.00,WeatherDisplay:10.37,2013-11-13 11:52:00,
2013-11-13 06:57:00,20.8,16.5,30.70,ENE,59,0.0,0.0,83,0.00,CLR,,0.00,WeatherDisplay:10.37,2013-11-13 11:57:00,
2013-11-13 07:02:00,20.8,16.5,30.70,ENE,59,0.0,0.0,83,0.00,CLR,,0.00,WeatherDisplay:10.37,2013-11-13 12:02:00,
2013-11-13 07:07:00,20.8,16.5,30.70,ENE,59,0.0,0.0,83,0.00,CLR,,0.00,WeatherDisplay:10.37,2013-11-13 12:07:00,
2013-11-13 07:12:00,20.9,16.5,30.70,ENE,59,0.0,0.0,83,0.00,CLR,,0.00,WeatherDisplay:10.37,2013-11-13 12:12:00,
2013-11-13 07:17:00,20.9,16.5,30.70,ENE,59,0.0,0.0,83,0.00,CLR,,0.00,WeatherDisplay:10.37,2013-11-13 12:17:00,
2013-11-13 07:22:00,20.7,16.4,30.70,ENE,59,0.0,0.0,83,0.00,CLR,,0.00,WeatherDisplay:10.37,2013-11-13 12:22:00,
2013-11-13 07:27:00,20.4,16.1,30.70,ENE,59,0.0,0.0,83,0.00,CLR,,0.00,WeatherDisplay:10.37,2013-11-13 12:27:00,
2013-11-13 07:32:00,20.2,15.9,30.70,ENE,59,0.0,0.0,83,0.00,CLR,,0.00,WeatherDisplay:10.37,2013-11-13 12:32:00,
2013-11-13 07:37:00,20.1,15.8,30.70,ENE,59,0.0,0.0,83,0.00,CLR,,0.00,WeatherDisplay:10.37,2013-11-13 12:37:00,
2013-11-13 07:42:00,20.3,16.2,30.70,ENE,59,0.0,0.0,84,0.00,CLR,,0.00,WeatherDisplay:10.37,2013-11-13 12:42:00,
2013-11-13 07:47:00,20.6,16.5,30.70,ENE,59,0.0,0.0,84,0.00,CLR,,0.00,WeatherDisplay:10.37,2013-11-13 12:47:00,
2013-11-13 07:52:00,20.7,16.6,30.71,ENE,59,0.0,0.0,84,0.00,CLR,,0.00,WeatherDisplay:10.37,2013-11-13 12:52:00,
2013-11-13 07:57:00,20.7,16.6,30.71,ENE,59,0.0,0.0,84,0.00,CLR,,0.00,WeatherDisplay:10.37,2013-11-13 12:57:00,
2013-11-13 08:02:00,20.7,16.6,30.71,ENE,59,0.0,0.0,84,0.00,CLR,,0.00,WeatherDisplay:10.37,2013-11-13 13:02:00,
2013-11-13 08:07:00,20.8,16.7,30.71,ENE,59,0.0,0.0,84,0.00,CLR,,0.00,WeatherDisplay:10.37,2013-11-13 13:07:00,
2013-11-13 08:12:00,21.3,17.2,30.72,ENE,59,0.0,0.0,84,0.00,CLR,,0.00,WeatherDisplay:10.37,2013-11-13 13:12:00,
2013-11-13 08:17:00,21.6,17.5,30.72,ENE,59,0.0,0.0,84,0.00,CLR,,0.00,WeatherDisplay:10.37,2013-11-13 13:17:00,
2013-11-13 08:22:00,21.7,17.6,30.72,ENE,59,0.0,0.0,84,0.00,CLR,,0.00,WeatherDisplay:10.37,2013-11-13 13:22:00,
2013-11-13 08:27:00,21.9,17.8,30.72,ENE,59,0.0,0.0,84,0.00,CLR,,0.00,WeatherDisplay:10.37,2013-11-13 13:27:00,
2013-11-13 08:32:00,22.4,18.6,30.72,ENE,59,0.0,0.0,85,0.00,CLR,,0.00,WeatherDisplay:10.37,2013-11-13 13:32:00,
2013-11-13 08:37:00,22.9,19.1,30.72,ENE,59,2.0,2.0,85,0.00,CLR,,0.00,WeatherDisplay:10.37,2013-11-13 13:37:00,
2013-11-13 08:42:00,23.3,19.2,30.73,ENE,59,0.0,0.0,84,0.00,CLR,,0.00,WeatherDisplay:10.37,2013-11-13 13:42:00,
2013-11-13 08:47:00,23.7,19.6,30.73,ENE,59,0.0,0.0,84,0.00,CLR,,0.00,WeatherDisplay:10.37,2013-11-13 13:47:00,
2013-11-13 08:52:00,24.0,19.9,30.73,ENE,59,1.2,0.0,84,0.00,CLR,,0.00,WeatherDisplay:10.37,2013-11-13 13:52:00,
2013-11-13 08:57:00,24.3,20.2,30.73,ENE,59,0.0,0.0,84,0.00,CLR,,0.00,WeatherDisplay:10.37,2013-11-13 13:57:00,
2013-11-13 09:02:00,24.7,20.3,30.73,ENE,59,0.0,0.0,83,0.00,CLR,,0.00,WeatherDisplay:10.37,2013-11-13 14:02:00,
2013-11-13 09:07:00,24.9,20.5,30.73,ENE,59,1.2,0.0,83,0.00,CLR,,0.00,WeatherDisplay:10.37,2013-11-13 14:07:00,
2013-11-13 09:12:00,25.3,20.6,30.73,ENE,59,0.0,0.0,82,0.00,CLR,,0.00,WeatherDisplay:10.37,2013-11-13 14:12:00,
2013-11-13 09:17:00,25.7,21.0,30.73,ENE,59,0.0,0.0,82,0.00,CLR,,0.00,WeatherDisplay:10.37,2013-11-13 14:17:00,
2013-11-13 09:22:00,26.3,21.3,30.73,ENE,59,1.2,1.2,81,0.00,CLR,,0.00,WeatherDisplay:10.37,2013-11-13 14:22:00,
2013-11-13 09:27:00,26.6,21.6,30.73,ENE,59,1.0,0.0,81,0.00,CLR,,0.00,WeatherDisplay:10.37,2013-11-13 14:27:00,
2013-11-13 09:32:00,27.0,21.7,30.73,ENE,59,0.0,0.0,80,0.00,CLR,,0.00,WeatherDisplay:10.37,2013-11-13 14:32:00,
2013-11-13 09:37:00,27.3,21.6,30.73,ENE,59,0.0,0.0,79,0.00,CLR,,0.00,WeatherDisplay:10.37,2013-11-13 14:37:00,
2013-11-13 09:42:00,27.8,21.8,30.73,ENE,59,0.0,0.0,78,0.00,CLR,,0.00,WeatherDisplay:10.37,2013-11-13 14:42:00,
2013-11-13 09:47:00,28.1,21.8,30.73,ENE,58,3.5,3.5,77,0.00,CLR,,0.00,WeatherDisplay:10.37,2013-11-13 14:47:00,
2013-11-13 09:52:00,28.2,21.9,30.73,ENE,58,0.0,0.0,77,0.00,CLR,,0.00,WeatherDisplay:10.37,2013-11-13 14:52:00,
2013-11-13 09:57:00,28.3,22.0,30.72,ENE,58,1.2,1.2,77,0.00,CLR,,0.00,WeatherDisplay:10.37,2013-11-13 14:57:00,
2013-11-13 10:02:00,28.4,21.8,30.72,ENE,58,0.0,0.0,76,0.00,CLR,,0.00,WeatherDisplay:10.37,2013-11-13 15:02:00,
2013-11-13 10:07:00,28.6,22.0,30.72,ENE,58,2.3,2.3,76,0.00,CLR,,0.00,WeatherDisplay:10.37,2013-11-13 15:07:00,
2013-11-13 10:12:00,29.2,22.6,30.72,ENE,58,0.0,0.0,76,0.00,CLR,,0.00,WeatherDisplay:10.37,2013-11-13 15:12:00,
2013-11-13 10:17:00,29.7,22.7,30.73,ENE,58,2.0,2.0,75,0.00,CLR,,0.00,WeatherDisplay:10.37,2013-11-13 15:17:00,
2013-11-13 10:22:00,29.7,22.1,30.73,NE,56,2.3,0.0,73,0.00,CLR,,0.00,WeatherDisplay:10.37,2013-11-13 15:22:00,
2013-11-13 10:27:00,29.9,22.3,30.72,NE,44,5.0,5.0,73,0.00,CLR,,0.00,WeatherDisplay:10.37,2013-11-13 15:27:00,
2013-11-13 10:32:00,30.1,22.2,30.72,NNE,20,2.3,2.3,72,0.00,CLR,,0.00,WeatherDisplay:10.37,2013-11-13 15:32:00,
2013-11-13 10:37:00,30.3,21.7,30.72,NNW,337,5.0,5.0,70,0.00,CLR,,0.00,WeatherDisplay:10.37,2013-11-13 15:37:00,
2013-11-13 10:42:00,30.6,22.0,30.72,West,271,5.8,5.8,70,0.00,CLR,,0.00,WeatherDisplay:10.37,2013-11-13 15:42:00,
2013-11-13 10:47:00,31.0,22.0,30.72,West,271,3.5,3.5,69,0.00,CLR,,0.00,WeatherDisplay:10.37,2013-11-13 15:47:00,
2013-11-13 10:52:00,31.0,21.3,30.72,WSW,245,4.6,4.6,67,0.00,CLR,,0.00,WeatherDisplay:10.37,2013-11-13 15:52:00,
2013-11-13 10:57:00,30.8,21.1,30.72,SW,236,7.0,7.0,67,0.00,CLR,,0.00,WeatherDisplay:10.37,2013-11-13 15:57:00,
2013-11-13 11:02:00,31.1,21.4,30.72,SW,234,4.0,4.0,67,0.00,CLR,,0.00,WeatherDisplay:10.37,2013-11-13 16:02:00,
2013-11-13 11:07:00,31.4,21.0,30.72,WSW,237,5.0,5.0,65,0.00,CLR,,0.00,WeatherDisplay:10.37,2013-11-13 16:07:00,
2013-11-13 11:12:00,31.5,21.4,30.72,SW,216,6.9,6.9,66,0.00,CLR,,0.00,WeatherDisplay:10.37,2013-11-13 16:12:00,
2013-11-13 11:17:00,31.9,21.8,30.72,SW,231,6.9,6.9,66,0.00,CLR,,0.00,WeatherDisplay:10.37,2013-11-13 16:17:00,
2013-11-13 11:22:00,32.2,22.1,30.72,WSW,241,7.0,7.0,66,0.00,CLR,,0.00,WeatherDisplay:10.37,2013-11-13 16:22:00,
2013-11-13 11:27:00,32.2,21.4,30.72,WSW,247,5.0,5.0,64,0.00,CLR,,0.00,WeatherDisplay:10.37,2013-11-13 16:27:00,
2013-11-13 11:32:00,32.4,21.6,30.72,West,272,4.0,4.0,64,0.00,CLR,,0.00,WeatherDisplay:10.37,2013-11-13 16:32:00,
2013-11-13 11:37:00,32.6,21.4,30.71,WSW,258,4.0,4.0,63,0.00,CLR,,0.00,WeatherDisplay:10.37,2013-11-13 16:37:00,
2013-11-13 11:42:00,32.6,21.0,30.71,WSW,252,5.8,5.8,62,0.00,CLR,,0.00,WeatherDisplay:10.37,2013-11-13 16:42:00,
2013-11-13 11:47:00,32.6,21.4,30.71,WSW,249,4.0,4.0,63,0.00,CLR,,0.00,WeatherDisplay:10.37,2013-11-13 16:47:00,
2013-11-13 11:52:00,32.8,21.6,30.70,WSW,251,2.3,2.3,63,0.00,CLR,,0.00,WeatherDisplay:10.37,2013-11-13 16:52:00,
2013-11-13 11:57:00,33.0,21.4,30.70,SW,233,3.5,3.5,62,0.00,CLR,,0.00,WeatherDisplay:10.37,2013-11-13 16:57:00,
2013-11-13 12:02:00,33.2,21.2,30.70,WSW,243,5.0,5.0,61,0.00,CLR,,0.00,WeatherDisplay:10.37,2013-11-13 17:02:00,
2013-11-13 12:07:00,33.6,21.2,30.70,WSW,242,6.0,6.0,60,0.00,CLR,,0.00,WeatherDisplay:10.37,2013-11-13 17:07:00,
2013-11-13 12:12:00,33.8,21.4,30.69,WSW,251,6.0,6.0,60,0.00,CLR,,0.00,WeatherDisplay:10.37,2013-11-13 17:12:00,
2013-11-13 12:17:00,33.6,19.6,30.69,WSW,253,5.0,5.0,56,0.00,CLR,,0.00,WeatherDisplay:10.37,2013-11-13 17:17:00,
2013-11-13 12:22:00,33.7,20.9,30.69,WSW,249,3.0,3.0,59,0.00,CLR,,0.00,WeatherDisplay:10.37,2013-11-13 17:22:00,
2013-11-13 12:27:00,34.2,20.5,30.69,WSW,249,3.5,3.5,57,0.00,CLR,,0.00,WeatherDisplay:10.37,2013-11-13 17:27:00,
2013-11-13 12:32:00,34.4,20.7,30.69,WSW,240,5.0,5.0,57,0.00,CLR,,0.00,WeatherDisplay:10.37,2013-11-13 17:32:00,
2013-11-13 12:37:00,34.8,21.1,30.69,WSW,237,4.0,4.0,57,0.00,CLR,,0.00,WeatherDisplay:10.37,2013-11-13 17:37:00,
2013-11-13 12:42:00,35.3,21.6,30.68,WSW,240,5.0,5.0,57,0.00,CLR,,0.00,WeatherDisplay:10.37,2013-11-13 17:42:00,
2013-11-13 12:47:00,34.7,20.2,30.68,SW,236,6.0,6.0,55,0.00,CLR,,0.00,WeatherDisplay:10.37,2013-11-13 17:47:00,
2013-11-13 12:52:00,34.9,21.2,30.67,SW,236,3.0,3.0,57,0.00,CLR,,0.00,WeatherDisplay:10.37,2013-11-13 17:52:00,
2013-11-13 12:57:00,35.7,21.5,30.67,SW,236,5.0,5.0,56,0.00,CLR,,0.00,WeatherDisplay:10.37,2013-11-13 17:57:00,
2013-11-13 13:02:00,36.0,20.9,30.67,WSW,239,5.0,5.0,54,0.00,CLR,,0.00,WeatherDisplay:10.37,2013-11-13 18:02:00,
2013-11-13 13:07:00,36.0,20.5,30.67,WSW,242,1.2,0.0,53,0.00,CLR,,0.00,WeatherDisplay:10.37,2013-11-13 18:07:00,
2013-11-13 13:12:00,36.2,20.2,30.66,WSW,241,0.0,0.0,52,0.00,CLR,,0.00,WeatherDisplay:10.37,2013-11-13 18:12:00,
2013-11-13 13:17:00,36.7,21.2,30.66,SW,236,7.0,7.0,53,0.00,CLR,,0.00,WeatherDisplay:10.37,2013-11-13 18:17:00,
2013-11-13 13:22:00,36.1,20.2,30.66,SW,236,5.8,5.8,52,0.00,CLR,,0.00,WeatherDisplay:10.37,2013-11-13 18:22:00,
2013-11-13 13:27:00,36.8,21.3,30.66,SW,236,6.9,6.9,53,0.00,CLR,,0.00,WeatherDisplay:10.37,2013-11-13 18:27:00,
2013-11-13 13:32:00,37.3,21.7,30.66,SW,236,6.0,6.0,53,0.00,CLR,,0.00,WeatherDisplay:10.37,2013-11-13 18:32:00,
2013-11-13 13:37:00,36.8,20.3,30.65,WSW,256,5.0,5.0,51,0.00,CLR,,0.00,WeatherDisplay:10.37,2013-11-13 18:37:00,
2013-11-13 13:42:00,36.5,19.6,30.65,WSW,254,5.0,5.0,50,0.00,CLR,,0.00,WeatherDisplay:10.37,2013-11-13 18:42:00,
2013-11-13 13:47:00,36.8,20.8,30.65,WSW,255,3.5,3.5,52,0.00,CLR,,0.00,WeatherDisplay:10.37,2013-11-13 18:47:00,
2013-11-13 13:52:00,37.3,21.3,30.64,WSW,255,2.3,0.0,52,0.00,CLR,,0.00,WeatherDisplay:10.37,2013-11-13 18:52:00,
2013-11-13 13:57:00,37.5,20.5,30.64,WSW,255,5.0,5.0,50,0.00,CLR,,0.00,WeatherDisplay:10.37,2013-11-13 18:57:00,
2013-11-13 14:02:00,37.0,19.1,30.64,SW,236,3.5,3.5,48,0.00,CLR,,0.00,WeatherDisplay:10.37,2013-11-13 19:02:00,
2013-11-13 14:07:00,37.2,19.3,30.64,WSW,238,2.3,2.3,48,0.00,CLR,,0.00,WeatherDisplay:10.37,2013-11-13 19:07:00,
2013-11-13 14:12:00,37.8,19.8,30.64,WSW,238,1.0,0.0,48,0.00,CLR,,0.00,WeatherDisplay:10.37,2013-11-13 19:12:00,
2013-11-13 14:17:00,38.8,20.8,30.64,WSW,239,6.0,6.0,48,0.00,CLR,,0.00,WeatherDisplay:10.37,2013-11-13 19:17:00,
2013-11-13 14:22:00,38.5,20.0,30.63,WSW,238,3.5,3.5,47,0.00,CLR,,0.00,WeatherDisplay:10.37,2013-11-13 19:22:00,
2013-11-13 14:27:00,38.9,20.9,30.63,SW,233,0.0,0.0,48,0.00,CLR,,0.00,WeatherDisplay:10.37,2013-11-13 19:27:00,
2013-11-13 14:32:00,39.2,20.6,30.63,SW,233,5.0,5.0,47,0.00,CLR,,0.00,WeatherDisplay:10.37,2013-11-13 19:32:00,
2013-11-13 14:37:00,39.7,21.1,30.63,SW,220,1.2,0.0,47,0.00,CLR,,0.00,WeatherDisplay:10.37,2013-11-13 19:37:00,
2013-11-13 14:42:00,40.3,20.1,30.62,SW,222,5.0,5.0,44,0.00,CLR,,0.00,WeatherDisplay:10.37,2013-11-13 19:42:00,
2013-11-13 14:47:00,39.3,19.7,30.63,SW,231,5.8,5.8,45,0.00,CLR,,0.00,WeatherDisplay:10.37,2013-11-13 19:47:00,
2013-11-13 14:52:00,38.8,20.3,30.62,SW,231,3.5,3.5,47,0.00,CLR,,0.00,WeatherDisplay:10.37,2013-11-13 19:52:00,
2013-11-13 14:57:00,39.5,21.4,30.62,SW,232,4.0,4.0,48,0.00,CLR,,0.00,WeatherDisplay:10.37,2013-11-13 19:57:00,
2013-11-13 15:02:00,39.8,20.7,30.62,SW,236,5.0,5.0,46,0.00,CLR,,0.00,WeatherDisplay:10.37,2013-11-13 20:02:00,
2013-11-13 15:07:00,39.5,20.4,30.61,SW,236,3.5,3.5,46,0.00,CLR,,0.00,WeatherDisplay:10.37,2013-11-13 20:07:00,
2013-11-13 15:12:00,39.6,20.5,30.61,WSW,239,6.0,6.0,46,0.00,CLR,,0.00,WeatherDisplay:10.37,2013-11-13 20:12:00,
2013-11-13 15:17:00,39.7,20.1,30.61,WSW,238,6.0,6.0,45,0.00,CLR,,0.00,WeatherDisplay:10.37,2013-11-13 20:17:00,
2013-11-13 15:22:00,39.4,20.3,30.61,WSW,246,4.0,4.0,46,0.00,CLR,,0.00,WeatherDisplay:10.37,2013-11-13 20:22:00,
2013-11-13 15:27:00,39.5,20.4,30.61,SW,236,4.6,4.6,46,0.00,CLR,,0.00,WeatherDisplay:10.37,2013-11-13 20:27:00,
2013-11-13 15:32:00,39.7,20.1,30.61,SW,236,9.2,9.2,45,0.00,CLR,,0.00,WeatherDisplay:10.37,2013-11-13 20:32:00,
2013-11-13 15:37:00,39.7,20.6,30.61,SW,236,3.5,3.5,46,0.00,CLR,,0.00,WeatherDisplay:10.37,2013-11-13 20:37:00,
2013-11-13 15:42:00,39.9,20.3,30.60,SW,236,2.3,2.3,45,0.00,CLR,,0.00,WeatherDisplay:10.37,2013-11-13 20:42:00,
2013-11-13 15:47:00,39.8,20.2,30.60,SSW,213,5.0,5.0,45,0.00,CLR,,0.00,WeatherDisplay:10.37,2013-11-13 20:47:00,
2013-11-13 15:52:00,39.9,19.7,30.60,SW,225,7.0,7.0,44,0.00,CLR,,0.00,WeatherDisplay:10.37,2013-11-13 20:52:00,
2013-11-13 15:57:00,39.7,19.5,30.60,SW,226,4.0,4.0,44,0.00,CLR,,0.00,WeatherDisplay:10.37,2013-11-13 20:57:00,
2013-11-13 16:02:00,39.7,20.1,30.60,SW,232,9.0,9.0,45,0.00,CLR,,0.00,WeatherDisplay:10.37,2013-11-13 21:02:00,
2013-11-13 16:07:00,39.9,20.3,30.60,SW,233,3.5,3.5,45,0.00,CLR,,0.00,WeatherDisplay:10.37,2013-11-13 21:07:00,
2013-11-13 16:12:00,40.0,20.3,30.60,SW,230,3.5,3.5,45,0.00,CLR,,0.00,WeatherDisplay:10.37,2013-11-13 21:12:00,
2013-11-13 16:17:00,40.4,20.7,30.59,SW,230,1.2,1.2,45,0.00,CLR,,0.00,WeatherDisplay:10.37,2013-11-13 21:17:00,
2013-11-13 16:22:00,39.8,20.2,30.59,WSW,239,7.0,7.0,45,0.00,CLR,,0.00,WeatherDisplay:10.37,2013-11-13 21:22:00,
2013-11-13 16:27:00,39.4,19.8,30.59,WSW,239,2.3,2.3,45,0.00,CLR,,0.00,WeatherDisplay:10.37,2013-11-13 21:27:00,
2013-11-13 16:32:00,39.7,20.1,30.59,SW,232,2.3,2.3,45,0.00,CLR,,0.00,WeatherDisplay:10.37,2013-11-13 21:32:00,
2013-11-13 16:37:00,39.8,19.6,30.59,SW,235,6.0,6.0,44,0.00,CLR,,0.00,WeatherDisplay:10.37,2013-11-13 21:37:00,
2013-11-13 16:42:00,39.2,19.6,30.59,SW,236,4.6,4.6,45,0.00,CLR,,0.00,WeatherDisplay:10.37,2013-11-13 21:42:00,
2013-11-13 16:47:00,39.1,19.5,30.59,SW,236,3.5,3.5,45,0.00,CLR,,0.00,WeatherDisplay:10.37,2013-11-13 21:47:00,
2013-11-13 16:52:00,39.1,20.0,30.58,SW,236,3.5,3.5,46,0.00,CLR,,0.00,WeatherDisplay:10.37,2013-11-13 21:52:00,
2013-11-13 16:57:00,39.0,19.9,30.58,SW,236,2.3,2.3,46,0.00,CLR,,0.00,WeatherDisplay:10.37,2013-11-13 21:57:00,
2013-11-13 17:02:00,38.9,19.9,30.58,SW,234,4.0,4.0,46,0.00,CLR,,0.00,WeatherDisplay:10.37,2013-11-13 22:02:00,
2013-11-13 17:07:00,38.8,19.8,30.58,SW,234,3.5,3.5,46,0.00,CLR,,0.00,WeatherDisplay:10.37,2013-11-13 22:07:00,
2013-11-13 17:12:00,38.7,20.2,30.58,SW,235,3.5,3.5,47,0.00,CLR,,0.00,WeatherDisplay:10.37,2013-11-13 22:12:00,
2013-11-13 17:17:00,38.2,19.7,30.57,SW,235,4.0,4.0,47,0.00,CLR,,0.00,WeatherDisplay:10.37,2013-11-13 22:17:00,
2013-11-13 17:22:00,37.5,19.6,30.57,SW,234,0.0,0.0,48,0.00,CLR,,0.00,WeatherDisplay:10.37,2013-11-13 22:22:00,
2013-11-13 17:27:00,37.3,19.9,30.57,SW,234,1.2,0.0,49,0.00,CLR,,0.00,WeatherDisplay:10.37,2013-11-13 22:27:00,
2013-11-13 17:32:00,37.0,19.6,30.57,SW,234,1.2,0.0,49,0.00,CLR,,0.00,WeatherDisplay:10.37,2013-11-13 22:32:00,
2013-11-13 17:37:00,36.8,19.9,30.57,SW,235,0.0,0.0,50,0.00,CLR,,0.00,WeatherDisplay:10.37,2013-11-13 22:37:00,
2013-11-13 17:42:00,36.5,20.1,30.57,SW,235,0.0,0.0,51,0.00,CLR,,0.00,WeatherDisplay:10.37,2013-11-13 22:42:00,
2013-11-13 17:47:00,36.3,19.9,30.57,SW,235,0.0,0.0,51,0.00,CLR,,0.00,WeatherDisplay:10.37,2013-11-13 22:47:00,
2013-11-13 17:52:00,36.0,20.1,30.57,SW,234,0.0,0.0,52,0.00,CLR,,0.00,WeatherDisplay:10.37,2013-11-13 22:52:00,
2013-11-13 17:57:00,35.8,19.9,30.57,SW,235,0.0,0.0,52,0.00,CLR,,0.00,WeatherDisplay:10.37,2013-11-13 22:57:00,
2013-11-13 18:02:00,35.5,20.0,30.57,SW,235,0.0,0.0,53,0.00,CLR,,0.00,WeatherDisplay:10.37,2013-11-13 23:02:00,
2013-11-13 18:07:00,35.2,20.2,30.57,SW,235,0.0,0.0,54,0.00,CLR,,0.00,WeatherDisplay:10.37,2013-11-13 23:07:00,
2013-11-13 18:12:00,34.8,19.8,30.57,SW,235,0.0,0.0,54,0.00,CLR,,0.00,WeatherDisplay:10.37,2013-11-13 23:12:00,
2013-11-13 18:17:00,34.4,19.9,30.57,SW,234,0.0,0.0,55,0.00,CLR,,0.00,WeatherDisplay:10.37,2013-11-13 23:17:00,
2013-11-13 18:22:00,34.4,20.3,30.56,SW,235,0.0,0.0,56,0.00,CLR,,0.00,WeatherDisplay:10.37,2013-11-13 23:22:00,
2013-11-13 18:27:00,34.1,20.0,30.56,SW,235,0.0,0.0,56,0.00,CLR,,0.00,WeatherDisplay:10.37,2013-11-13 23:27:00,
2013-11-13 18:32:00,33.8,19.7,30.56,SW,235,0.0,0.0,56,0.00,CLR,,0.00,WeatherDisplay:10.37,2013-11-13 23:32:00,
2013-11-13 18:37:00,33.5,19.9,30.56,SW,235,0.0,0.0,57,0.00,CLR,,0.00,WeatherDisplay:10.37,2013-11-13 23:37:00,
2013-11-13 18:42:00,33.2,20.0,30.56,SW,234,0.0,0.0,58,0.00,CLR,,0.00,WeatherDisplay:10.37,2013-11-13 23:42:00,
2013-11-13 18:47:00,32.9,19.7,30.56,SW,235,0.0,0.0,58,0.00,CLR,,0.00,WeatherDisplay:10.37,2013-11-13 23:47:00,
2013-11-13 18:52:00,32.6,19.4,30.56,SW,235,0.0,0.0,58,0.00,CLR,,0.00,WeatherDisplay:10.37,2013-11-13 23:52:00,
2013-11-13 18:57:00,32.6,19.8,30.56,SW,235,0.0,0.0,59,0.00,CLR,,0.00,WeatherDisplay:10.37,2013-11-13 23:57:00,
2013-11-13 19:02:00,32.5,19.7,30.55,SW,234,0.0,0.0,59,0.00,CLR,,0.00,WeatherDisplay:10.37,2013-11-14 00:02:00,
2013-11-13 19:07:00,32.3,19.6,30.56,SW,235,0.0,0.0,59,0.00,CLR,,0.00,WeatherDisplay:10.37,2013-11-14 00:07:00,
2013-11-13 19:12:00,32.2,19.5,30.56,SW,235,0.0,0.0,59,0.00,CLR,,0.00,WeatherDisplay:10.37,2013-11-14 00:12:00,
2013-11-13 19:17:00,32.1,19.4,30.55,SW,234,1.2,0.0,59,0.00,CLR,,0.00,WeatherDisplay:10.37,2013-11-14 00:17:00,
2013-11-13 19:22:00,32.0,19.3,30.55,SW,234,0.0,0.0,59,0.00,CLR,,0.00,WeatherDisplay:10.37,2013-11-14 00:22:00,
2013-11-13 19:27:00,31.9,19.6,30.55,SW,234,0.0,0.0,60,0.00,CLR,,0.00,WeatherDisplay:10.37,2013-11-14 00:27:00,
2013-11-13 19:32:00,31.7,19.8,30.55,SW,235,0.0,0.0,61,0.00,CLR,,0.00,WeatherDisplay:10.37,2013-11-14 00:32:00,
2013-11-13 19:37:00,31.6,19.7,30.55,SW,235,0.0,0.0,61,0.00,CLR,,0.00,WeatherDisplay:10.37,2013-11-14 00:37:00,
2013-11-13 19:42:00,31.5,20.0,30.55,SW,234,0.0,0.0,62,0.00,CLR,,0.00,WeatherDisplay:10.37,2013-11-14 00:42:00,
2013-11-13 19:47:00,31.3,19.8,30.55,SW,234,0.0,0.0,62,0.00,CLR,,0.00,WeatherDisplay:10.37,2013-11-14 00:47:00,
2013-11-13 19:52:00,31.2,19.7,30.54,SW,234,0.0,0.0,62,0.00,CLR,,0.00,WeatherDisplay:10.37,2013-11-14 00:52:00,
2013-11-13 19:57:00,31.2,19.7,30.55,SW,235,0.0,0.0,62,0.00,CLR,,0.00,WeatherDisplay:10.37,2013-11-14 00:57:00,
2013-11-13 20:02:00,31.1,20.0,30.54,SW,235,0.0,0.0,63,0.00,CLR,,0.00,WeatherDisplay:10.37,2013-11-14 01:02:00,
2013-11-13 20:07:00,30.9,19.8,30.54,SW,234,0.0,0.0,63,0.00,CLR,,0.00,WeatherDisplay:10.37,2013-11-14 01:07:00,
2013-11-13 20:12:00,30.6,19.5,30.54,SW,234,0.0,0.0,63,0.00,CLR,,0.00,WeatherDisplay:10.37,2013-11-14 01:12:00,
2013-11-13 20:17:00,30.5,19.8,30.54,SW,235,0.0,0.0,64,0.00,CLR,,0.00,WeatherDisplay:10.37,2013-11-14 01:17:00,
2013-11-13 20:22:00,30.4,19.7,30.54,SW,235,0.0,0.0,64,0.00,CLR,,0.00,WeatherDisplay:10.37,2013-11-14 01:22:00,
2013-11-13 20:27:00,30.4,19.7,30.54,SW,235,0.0,0.0,64,0.00,CLR,,0.00,WeatherDisplay:10.37,2013-11-14 01:27:00,
2013-11-13 20:32:00,30.5,19.8,30.53,SW,235,0.0,0.0,64,0.00,CLR,,0.00,WeatherDisplay:10.37,2013-11-14 01:32:00,
2013-11-13 20:37:00,30.4,19.7,30.53,SW,234,0.0,0.0,64,0.00,CLR,,0.00,WeatherDisplay:10.37,2013-11-14 01:37:00,
2013-11-13 20:42:00,30.3,19.6,30.53,SW,234,0.0,0.0,64,0.00,CLR,,0.00,WeatherDisplay:10.37,2013-11-14 01:42:00,
2013-11-13 20:47:00,30.2,19.8,30.53,SW,235,0.0,0.0,65,0.00,CLR,,0.00,WeatherDisplay:10.37,2013-11-14 01:47:00,
2013-11-13 20:52:00,30.1,19.7,30.53,SW,235,0.0,0.0,65,0.00,CLR,,0.00,WeatherDisplay:10.37,2013-11-14 01:52:00,
2013-11-13 20:57:00,30.2,19.8,30.53,SW,235,1.2,0.0,65,0.00,CLR,,0.00,WeatherDisplay:10.37,2013-11-14 01:57:00,
2013-11-13 21:02:00,30.5,19.8,30.53,SW,234,2.3,2.3,64,0.00,CLR,,0.00,WeatherDisplay:10.37,2013-11-14 02:02:00,
2013-11-13 21:07:00,30.9,19.8,30.53,SW,234,2.0,2.0,63,0.00,CLR,,0.00,WeatherDisplay:10.37,2013-11-14 02:07:00,
2013-11-13 21:12:00,31.1,20.0,30.53,SW,235,1.0,0.0,63,0.00,CLR,,0.00,WeatherDisplay:10.37,2013-11-14 02:12:00,
2013-11-13 21:17:00,31.4,19.9,30.53,SW,235,2.0,2.0,62,0.00,CLR,,0.00,WeatherDisplay:10.37,2013-11-14 02:17:00,
2013-11-13 21:22:00,31.5,20.0,30.53,SW,235,0.0,0.0,62,0.00,CLR,,0.00,WeatherDisplay:10.37,2013-11-14 02:22:00,
2013-11-13 21:27:00,31.4,19.9,30.53,SW,234,1.2,0.0,62,0.00,CLR,,0.00,WeatherDisplay:10.37,2013-11-14 02:27:00,
2013-11-13 21:32:00,31.3,19.8,30.53,SW,234,1.0,0.0,62,0.00,CLR,,0.00,WeatherDisplay:10.37,2013-11-14 02:32:00,
2013-11-13 21:37:00,31.3,19.8,30.53,SW,235,1.2,0.0,62,0.00,CLR,,0.00,WeatherDisplay:10.37,2013-11-14 02:37:00,
2013-11-13 21:42:00,31.4,19.9,30.53,SW,235,1.2,1.2,62,0.00,CLR,,0.00,WeatherDisplay:10.37,2013-11-14 02:42:00,
2013-11-13 21:47:00,31.4,19.9,30.53,SW,235,4.0,4.0,62,0.00,CLR,,0.00,WeatherDisplay:10.37,2013-11-14 02:47:00,
2013-11-13 21:52:00,31.4,19.5,30.53,SW,235,1.2,0.0,61,0.00,CLR,,0.00,WeatherDisplay:10.37,2013-11-14 02:52:00,
2013-11-13 21:57:00,31.4,19.5,30.53,SW,235,2.3,2.3,61,0.00,CLR,,0.00,WeatherDisplay:10.37,2013-11-14 02:57:00,
2013-11-13 22:02:00,31.5,19.6,30.52,SW,235,2.3,2.3,61,0.00,CLR,,0.00,WeatherDisplay:10.37,2013-11-14 03:02:00,
2013-11-13 22:07:00,31.6,19.7,30.52,SW,235,1.2,1.2,61,0.00,CLR,,0.00,WeatherDisplay:10.37,2013-11-14 03:07:00,
2013-11-13 22:12:00,31.6,19.7,30.52,SW,234,2.3,2.3,61,0.00,CLR,,0.00,WeatherDisplay:10.37,2013-11-14 03:12:00,
2013-11-13 22:17:00,31.5,19.6,30.52,SW,235,1.2,0.0,61,0.00,CLR,,0.00,WeatherDisplay:10.37,2013-11-14 03:17:00,
2013-11-13 22:22:00,31.5,19.6,30.52,SW,235,2.3,2.3,61,0.00,CLR,,0.00,WeatherDisplay:10.37,2013-11-14 03:22:00,
2013-11-13 22:27:00,31.5,19.6,30.52,SW,235,0.0,0.0,61,0.00,CLR,,0.00,WeatherDisplay:10.37,2013-11-14 03:27:00,
2013-11-13 22:32:00,31.4,19.1,30.52,SW,234,1.2,0.0,60,0.00,CLR,,0.00,WeatherDisplay:10.37,2013-11-14 03:32:00,
2013-11-13 22:37:00,31.3,19.4,30.51,SW,235,3.5,3.5,61,0.00,CLR,,0.00,WeatherDisplay:10.37,2013-11-14 03:37:00,
2013-11-13 22:42:00,31.4,19.1,30.51,SW,235,1.2,1.2,60,0.00,CLR,,0.00,WeatherDisplay:10.37,2013-11-14 03:42:00,
2013-11-13 22:47:00,31.4,19.1,30.51,SW,235,1.2,0.0,60,0.00,CLR,,0.00,WeatherDisplay:10.37,2013-11-14 03:47:00,
2013-11-13 22:52:00,31.2,18.9,30.51,SW,234,0.0,0.0,60,0.00,CLR,,0.00,WeatherDisplay:10.37,2013-11-14 03:52:00,
2013-11-13 22:58:00,30.9,19.0,30.51,SW,234,2.0,2.0,61,0.00,CLR,,0.00,WeatherDisplay:10.37,2013-11-14 03:58:00,
2013-11-13 23:03:00,30.7,19.2,30.50,SW,235,1.2,1.2,62,0.00,CLR,,0.00,WeatherDisplay:10.37,2013-11-14 04:03:00,
2013-11-13 23:08:00,30.8,19.3,30.50,SW,235,2.3,2.3,62,0.00,CLR,,0.00,WeatherDisplay:10.37,2013-11-14 04:08:00,
2013-11-13 23:13:00,31.0,19.5,30.50,SW,234,4.0,4.0,62,0.00,CLR,,0.00,WeatherDisplay:10.37,2013-11-14 04:13:00,
2013-11-13 23:18:00,31.1,19.6,30.50,SW,234,2.3,2.3,62,0.00,CLR,,0.00,WeatherDisplay:10.37,2013-11-14 04:18:00,
2013-11-13 23:23:00,31.1,19.6,30.50,SW,234,3.5,3.5,62,0.00,CLR,,0.00,WeatherDisplay:10.37,2013-11-14 04:23:00,
2013-11-13 23:28:00,31.1,19.6,30.50,SW,235,2.0,2.0,62,0.00,CLR,,0.00,WeatherDisplay:10.37,2013-11-14 04:28:00,
2013-11-13 23:33:00,31.0,19.5,30.50,SW,235,0.0,0.0,62,0.00,CLR,,0.00,WeatherDisplay:10.37,2013-11-14 04:33:00,
2013-11-13 23:38:00,30.8,19.7,30.50,SW,235,1.2,0.0,63,0.00,CLR,,0.00,WeatherDisplay:10.37,2013-11-14 04:38:00,
2013-11-13 23:43:00,30.8,19.7,30.50,SW,234,2.3,2.3,63,0.00,CLR,,0.00,WeatherDisplay:10.37,2013-11-14 04:43:00,
2013-11-13 23:48:00,30.8,19.7,30.49,SW,235,2.3,2.3,63,0.00,CLR,,0.00,WeatherDisplay:10.37,2013-11-14 04:48:00,
2013-11-13 23:53:00,30.8,19.7,30.49,SW,235,3.5,3.5,63,0.00,CLR,,0.00,WeatherDisplay:10.37,2013-11-14 04:53:00,
2013-11-13 23:58:00,30.8,19.7,30.49,SW,235,3.5,3.5,63,0.00,CLR,,0.00,WeatherDisplay:10.37,2013-11-14 04:58:00,